Location: Gibsondale
(40.9931°N, 80.2478°W)
Time: 08:09:02
(UTC+00:00)

Radarsat Rocket - Pass Details

Date: 29 October 2020
Orbit: 933 x 1492 km, 100.6° (Epoch: 26 November)

Event Time Altitude Azimuth Distance (km) Brightness Sun altitude
Rises 22:47:08 0° 170° (S) 3,760 7.1 -5.8°
Reaches altitude 10° 22:49:42 10° 173° (S) 2,757 6.5 -6.3°
Maximum altitude 22:55:43 66° 255° (WSW) 1,032 4.5 -7.4°
Drops below altitude 10° 23:01:31 10° 338° (NNW) 2,650 6.4 -8.4°
Sets 23:03:57 0° 342° (NNW) 3,604 7.1 -8.9°
